This demonstration page uses our WeatherBlox Daily Observations layout. Learn more.

Left ArrowRight Arrow

44.89941, -97.11507

Hourly Observations for June 18, 2018

Temp ( °F °C ) Dew Point ( °F °C ) Humidity (%) Winds ( mph kmh ) Pressure ( in mb ) Visibility ( mi km ) Precip ( " mm )
12:53 am 00:53 Cloudy 64 17.8 62 16.7 93 93 N 9 15 29.93 1014 10 16 0.00 0.03
1:53 am 01:53 Cloudy 63 17.2 61 16.1 93 93 NNE 12 19 29.93 1014 10 16 0.00 0.00
2:53 am 02:53 Cloudy 64 17.8 61 16.1 90 90 NNE 10 17 29.94 1014 10 16 0.00 0.00
3:53 am 03:53 Cloudy 63 17.2 61 16.1 93 93 NNE 8 13 29.95 1014 10 16 0.00 0.00
4:53 am 04:53 Cloudy 63 17.2 61 16.1 93 93 NNE 9 15 29.97 1015 10 16 0.00 0.00
5:53 am 05:53 Cloudy 62 16.7 61 16.1 96 96 NNE 8 13 29.99 1016 10 16 0.02 0.51
6:53 am 06:53 Mostly Sunny 62 16.7 60 15.6 93 93 NNE 13 20 29.98 1015 10 16 0.00 0.00
7:53 am 07:53 Cloudy 63 17.2 60 15.6 90 90 NNE 12 19 30.01 1016 10 16 0.00 0.00
8:53 am 08:53 Cloudy 63 17.2 59 15 87 87 NNE 13 20 30.03 1017 10 16 0.00 0.00
9:53 am 09:53 Cloudy 65 18.3 58 14.4 78 78 NE 13 20 30.02 1017 10 16 0.00 0.00
10:53 am 10:53 Cloudy 66 18.9 57 13.9 73 73 NE 10 17 30.03 1017 10 16 0.00 0.00
11:53 am 11:53 Cloudy 69 20.6 58 14.4 68 68 NE 15 24 30.03 1017 10 16 0.00 0.00
12:53 pm 12:53 Cloudy 70 21.1 58 14.4 66 66 ENE 16 26 30.02 1017 10 16 0.00 0.00
1:53 pm 13:53 Cloudy 72 22.2 59 15 64 64 ENE 15 24 30.00 1016 10 16 0.00 0.00
2:53 pm 14:53 Cloudy 72 22.2 58 14.4 61 61 E 12 19 30.00 1016 10 16 0.00 0.00
3:53 pm 15:53 Cloudy 71 21.7 58 14.4 63 63 E 10 17 30.00 1016 10 16 0.00 0.00
4:53 pm 16:53 Cloudy 71 21.7 59 15 66 66 ENE 12 19 29.98 1015 10 16 0.00 0.00
5:53 pm 17:53 Cloudy 70 21.1 58 14.4 66 66 ENE 12 19 29.97 1015 10 16 0.00 0.00
6:53 pm 18:53 Mostly Cloudy 71 21.7 59 15 66 66 ENE 13 20 29.96 1015 10 16 0.00 0.00
7:19 pm 19:19 Mostly Cloudy with Thunderstorms 70 21.1 59 15 68 68 ENE 6 9 29.91 1013 10 16 0.00 0.00
7:35 pm 19:35 Cloudy with Strong Thunderstorms 66 18.9 60 15.6 81 81 NE 14 22 29.94 1014 2 3 0.13 3.30
7:45 pm 19:45 Cloudy with Thunderstorms 65 18.3 61 16.1 87 87 ENE 9 15 29.94 1014 3 5 0.17 4.32
7:53 pm 19:53 Cloudy with Light Rain 66 18.9 61 16.1 84 84 E 9 15 29.97 1015 10 16 0.17 4.32
8:53 pm 20:53 Cloudy 66 18.9 61 16.1 84 84 NE 8 13 29.98 1015 10 16 0.00 0.03
9:53 pm 21:53 Cloudy 66 18.9 62 16.7 87 87 NE 6 9 29.98 1015 10 16 0.00 0.00
10:53 pm 22:53 Cloudy with Light Rain 65 18.3 62 16.7 90 90 N 10 17 30.00 1016 7 11 0.04 1.02
11:53 pm 23:53 Cloudy 65 18.3 63 17.2 93 93 NNE 7 11 30.00 1016 10 16 0.02 0.51

Powered by AerisWeather